Probability
0 0 0 0 0 0 0 0 0 0 0 0 0 0 0 0 0 1 1 1 1 0 0 0 0 0 0 0 0 0 0 0 0 0 0 0 0 0 0 0 0 0 0 0 0 0 0 0 0
0 0 0 0 0 0 0 0 0 0 0 0 0 0 0 0 0 1 1 1 1 1 0 0 0 0 0 0 0 0 0 0 0 0 0 0 0 0 0 0 0 0 0 0 0 0 0 0 0
0 0 0 0 0 0 0 0 0 0 0 0 0 0 0 0 0 0 0 1 2 1 0 0 0 0 0 0 0 0 0 0 0 0 0 0 0 0 0 0 0 0 0 0 0 0 0 0 0
0 0 0 0 0 0 0 0 0 0 0 0 0 0 2 3 1 0 1 1 2 2 1 0 0 0 0 0 0 0 0 0 0 0 0 0 0 0 0 0 0 0 0 0 0 0 0 0 0
0 0 0 0 0 0 0 0 0 0 0 0 0 1 5 8 5 2 2 2 1 1 1 0 0 0 0 0 0 0 0 0 0 0 0 0 0 0 0 0 0 0 0 0 0 0 0 0 0
0 0 0 0 0 0 0 0 0 0 0 0 0 2 8 12 9 4 2 2 1 1 0 0 1 0 0 0 0 0 0 0 0 0 0 0 0 0 0 0 0 0 0 0 0 0 0 0 0
0 0 0 0 0 0 0 0 0 0 0 0 0 3 9 16 14 9 6 5 2 1 0 0 0 0 0 0 0 0 0 0 0 0 1 1 0 0 0 0 0 0 0 0 0 0 0 0 0
0 0 0 0 0 0 0 0 0 0 1 2 2 4 14 25 27 23 20 15 8 3 1 1 0 0 0 0 0 0 0 0 0 0 1 1 0 0 0 0 0 0 0 0 0 0 0 0 0
0 0 0 0 0 0 0 0 0 0 1 2 3 7 20 35 40 39 35 28 17 10 6 4 2 0 0 0 0 0 0 0 0 0 1 1 0 0 0 0 0 0 0 0 0 0 0 0 0
0 0 0 0 0 0 0 0 0 0 0 2 4 9 23 38 45 43 38 31 24 18 12 8 5 2 2 3 3 1 0 0 0 0 0 0 0 0 0 0 0 0 0 0 0 0 0 0 0
0 0 0 0 0 0 0 0 0 0 0 1 4 9 21 35 42 38 29 25 25 22 15 11 9 8 7 8 7 3 1 0 0 0 0 0 0 0 0 0 0 0 0 0 0 0 0 0 0
0 0 0 0 0 0 0 0 0 0 0 1 3 9 16 27 34 32 25 24 27 26 20 15 13 14 14 13 8 3 1 0 0 0 0 0 0 0 0 0 0 0 0 0 0 0 0 0 0
0 0 0 0 0 0 0 0 0 0 0 0 2 7 12 19 28 32 32 32 31 29 26 21 17 17 19 14 7 2 0 0 0 0 0 0 0 0 0 0 0 0 0 0 0 0 0 0 0
0 0 0 0 0 0 0 0 0 0 1 2 3 5 10 18 27 35 40 39 32 28 27 23 17 16 17 13 5 1 0 0 0 0 0 0 0 0 0 0 0 0 0 0 0 0 0 0 0
0 0 0 0 0 0 0 0 1 1 3 6 6 6 10 20 28 34 38 36 30 25 22 18 14 14 15 11 5 1 0 0 0 0 0 0 0 0 0 0 0 0 0 0 0 0 0 0 0
0 0 0 0 0 0 0 1 2 2 5 9 10 10 12 19 27 31 32 30 26 22 18 14 12 13 14 11 6 2 0 0 0 0 0 0 0 0 0 0 0 0 0 0 0 0 0 0 0
0 0 0 0 0 0 0 2 3 3 5 9 9 9 10 15 21 26 28 27 24 20 17 15 13 12 12 10 6 2 0 0 0 0 0 0 0 0 0 0 0 0 0 0 0 0 0 0 0
0 0 0 0 0 0 0 1 3 3 4 6 6 7 8 9 11 15 20 23 22 19 18 16 14 12 11 8 5 1 0 0 0 0 0 0 0 0 0 0 0 0 0 0 0 0 0 0 0
0 0 0 0 0 0 0 0 2 3 2 3 5 6 5 3 3 6 11 16 18 18 18 17 14 11 9 5 2 0 0 0 0 0 0 0 0 0 0 0 0 0 0 0 0 0 0 0 0
0 0 0 0 0 0 0 0 1 2 1 2 3 3 2 1 0 1 5 10 13 15 16 14 12 9 6 2 0 0 0 0 0 0 0 0 0 0 0 0 0 0 0 0 0 0 0 0 0
0 0 0 0 0 0 0 0 0 0 0 0 1 1 1 0 0 0 2 5 7 9 10 10 10 8 4 1 0 0 0 0 0 0 0 0 0 0 0 0 0 0 0 0 0 0 0 0 0
0 0 0 0 0 0 0 0 0 0 0 0 1 1 2 1 1 0 0 1 3 4 5 6 8 7 4 1 0 0 0 0 0 0 0 0 0 0 0 0 0 0 0 0 0 0 0 0 0
0 0 0 0 0 0 0 0 0 0 0 0 1 2 2 2 1 0 0 0 1 3 4 4 5 6 4 2 1 0 0 0 0 0 0 0 0 0 0 0 0 0 0 0 0 0 0 0 0
0 0 0 0 0 0 0 0 0 0 0 0 0 1 2 1 0 0 1 1 2 3 4 3 3 4 3 2 1 0 0 0 0 0 0 0 0 0 0 0 0 0 0 0 0 0 0 0 0
0 0 0 0 0 0 0 0 0 0 0 0 0 0 0 0 0 1 2 2 3 3 3 2 1 2 2 1 0 0 0 0 0 0 0 0 0 0 0 0 0 0 0 0 0 0 0 0 0
0 0 0 0 0 0 0 0 0 0 0 0 0 0 0 0 0 1 3 4 3 2 2 1 1 1 1 1 1 1 1 0 0 0 0 0 0 0 0 0 0 0 0 0 0 0 0 0 0
0 0 0 0 0 0 0 0 0 0 0 0 0 0 0 0 0 2 5 5 3 2 2 2 2 2 2 2 2 3 2 1 1 0 0 0 0 0 0 0 0 0 0 0 0 0 0 0 0
0 0 0 0 0 0 0 0 0 0 0 0 0 0 0 0 0 1 4 5 4 3 4 4 4 4 4 4 5 6 6 5 4 4 4 5 5 3 1 0 0 0 0 1 1 0 0 0 0
0 0 0 0 0 0 0 0 0 0 0 0 0 0 0 0 0 1 3 5 5 4 5 5 5 4 4 7 10 11 10 11 12 13 15 15 14 11 6 2 1 1 1 2 2 1 0 0 0
0 0 0 0 0 0 0 0 0 0 0 0 0 0 0 0 0 0 2 4 6 5 5 6 6 5 5 9 14 15 14 15 18 21 23 23 21 16 10 5 3 2 2 3 2 1 0 0 0
Wind_Speed
9 7 6 6 8 7 2 2 0 3 3 2 3 2 2 2 1 5 8 17 19 19 19 18 13 14 13 13 13 13 14 13 13 12 12 11 10 9 9 8 8 8 8 8 7 8 8 7 7
6 5 6 7 9 6 2 2 2 1 3 5 4 4 3 3 5 7 10 17 20 19 19 17 16 14 14 13 13 13 13 13 12 12 11 10 9 9 8 8 7 8 8 7 7 7 7 7 7
5 7 7 6 7 6 2 1 0 3 4 5 4 2 0 4 5 7 11 19 20 18 17 17 17 15 14 13 13 13 13 12 12 11 10 10 9 8 8 7 7 7 6 6 6 6 6 7 7
5 6 6 8 5 1 4 2 0 4 5 5 3 3 4 5 3 7 15 19 20 18 17 18 15 15 14 13 13 13 12 12 11 10 9 9 8 7 7 6 6 6 5 5 5 5 5 5 5
7 6 8 6 2 1 2 3 2 6 4 4 5 2 5 5 5 12 16 18 18 17 16 19 15 14 13 13 12 12 11 11 10 9 8 7 6 5 5 4 4 5 5 4 4 4 4 4 4
6 6 6 2 2 0 1 1 4 6 4 3 3 3 6 5 9 14 16 16 17 16 15 17 14 13 13 12 12 11 11 10 9 8 7 6 5 4 3 3 3 3 3 3 4 4 4 3 3
6 5 2 1 1 1 2 1 3 4 5 3 2 3 7 7 10 13 14 14 14 14 14 15 15 14 12 11 11 10 10 9 8 7 6 5 4 3 2 2 2 3 3 3 4 4 4 3 3
6 5 2 1 1 2 3 0 1 4 1 2 3 3 7 9 10 12 13 13 12 12 12 13 13 12 12 12 11 10 9 8 7 6 5 3 3 4 3 5 4 4 4 4 4 5 5 4 3
6 6 1 3 3 3 2 2 1 1 2 4 2 2 7 14 12 13 13 12 12 11 10 11 11 10 10 10 12 10 9 7 7 7 5 4 4 4 5 2 1 4 5 5 4 4 5 5 6
6 4 5 5 6 6 3 4 2 4 5 5 5 5 11 14 14 14 15 15 14 13 11 9 9 10 9 7 8 6 6 6 3 3 2 2 0 1 3 4 2 4 5 6 6 5 6 8 6
5 5 5 4 5 6 5 4 4 6 4 2 4 9 13 14 13 13 14 14 14 13 11 10 9 9 8 6 6 4 3 4 4 3 1 1 2 1 2 2 4 4 6 6 6 7 6 5 3
6 5 6 6 5 5 5 4 3 5 2 3 1 9 13 14 14 13 13 13 13 12 11 10 9 8 6 5 5 4 4 3 3 3 0 1 1 2 2 2 2 2 2 2 3 3 4 5 5
8 6 4 5 5 4 4 4 3 2 1 2 5 10 13 13 12 12 11 11 11 11 10 9 9 8 7 5 4 4 3 3 4 3 3 2 1 2 1 1 2 3 1 2 3 3 3 4 5
5 6 6 5 3 2 4 3 4 1 1 3 6 10 11 12 11 11 11 11 11 11 10 9 9 8 8 6 5 4 4 3 4 3 5 3 3 2 2 0 1 2 2 2 2 2 2 3 2
7 8 6 3 3 2 5 6 3 2 3 4 6 7 9 9 9 10 11 11 11 10 10 9 8 8 8 7 7 5 4 4 4 4 4 3 3 3 2 1 1 2 1 0 1 1 2 2 3
8 8 3 4 3 3 7 3 4 4 5 6 6 7 8 8 8 8 9 9 9 9 9 9 8 9 8 7 6 5 5 5 4 4 4 4 4 3 2 2 2 2 1 1 0 2 1 1 2
4 6 6 2 3 3 7 5 4 4 5 6 7 8 8 8 8 7 7 8 9 9 9 9 8 9 8 8 7 6 5 4 4 3 3 3 3 3 2 3 3 1 1 1 2 1 2 1 2
10 10 7 5 1 5 7 4 2 4 5 6 7 8 9 10 9 9 8 8 8 9 9 9 9 9 9 8 6 5 5 5 4 3 3 3 2 2 2 2 3 2 2 1 2 1 2 3 3
9 10 9 5 1 5 5 4 1 5 6 7 7 8 9 10 9 9 9 9 9 8 9 10 10 10 8 7 7 6 6 5 4 4 4 3 2 3 2 2 2 2 3 3 2 2 1 1 2
9 10 7 1 0 5 5 3 2 4 7 6 8 9 10 10 10 10 10 10 10 10 10 10 10 10 9 7 5 4 4 4 4 4 4 3 3 2 2 2 1 2 2 2 2 2 2 1 1
8 7 8 7 2 5 6 4 5 6 6 6 7 7 10 12 12 12 12 12 11 11 11 10 10 10 9 9 6 5 5 4 5 5 5 5 4 3 1 1 2 1 1 3 2 2 2 1 1
7 4 5 5 7 2 4 4 5 5 7 8 8 9 10 11 12 12 12 13 13 12 11 10 10 10 10 9 9 9 6 5 5 4 4 6 6 5 4 3 2 0 1 2 0 3 2 3 0
5 2 4 6 6 5 1 6 5 5 5 8 10 11 11 12 13 13 13 13 13 12 11 10 10 10 10 10 9 8 7 5 4 4 5 6 6 6 5 4 3 2 1 1 2 1 2 1 2
2 5 6 7 7 3 4 6 4 3 1 6 9 11 12 12 13 13 12 12 12 12 11 11 11 11 11 11 10 10 8 6 5 5 5 6 5 6 7 6 5 5 2 2 2 1 1 1 2
7 8 6 5 3 3 3 4 4 4 2 5 9 11 12 12 12 13 13 14 14 14 13 13 13 12 12 12 11 11 10 9 8 7 6 6 5 5 7 7 6 5 4 4 3 3 1 2 1
6 8 7 8 7 5 2 2 5 4 3 4 8 11 12 13 13 13 14 14 14 15 14 14 14 13 13 13 12 11 11 9 8 8 6 6 5 5 6 7 7 7 6 6 5 4 4 3 4
4 6 6 8 7 6 2 1 5 5 6 7 8 10 12 13 14 14 14 15 15 15 15 15 14 13 13 13 12 11 12 10 8 7 8 7 5 5 7 8 8 8 8 7 6 5 5 4 6
6 4 4 6 6 7 3 1 3 4 6 8 9 11 12 13 13 14 14 15 14 14 14 15 14 14 14 13 12 11 12 12 10 9 9 7 7 7 7 8 9 9 9 9 8 7 7 7 6
6 6 6 5 5 8 5 2 6 2 2 6 9 10 12 13 14 14 13 14 14 14 14 14 14 14 13 13 13 12 11 11 11 10 10 10 9 9 9 9 9 9 9 9 9 9 7 8 8
6 6 6 6 5 6 7 2 7 3 1 2 5 7 9 11 12 13 13 13 13 14 14 14 14 14 14 13 12 12 11 11 11 11 11 10 10 10 10 10 10 10 10 10 10 11 10 10 10
Wind_Direction
191 213 239 245 239 235 250 93 85 159 148 134 154 193 200 128 107 90 119 151 148 148 144 151 152 149 145 139 135 132 131 131 130 129 128 127 124 121 117 111 105 99 95 90 87 87 85 81 76
196 227 240 241 255 252 192 143 202 127 106 137 161 182 173 116 62 101 141 150 151 150 149 154 150 152 148 144 140 137 135 133 132 131 130 128 125 122 118 112 106 101 97 93 90 87 84 79 74
211 246 261 250 254 282 331 101 132 116 145 176 170 191 134 95 116 132 145 153 154 150 149 143 153 153 151 148 144 141 139 138 136 135 133 132 131 128 125 120 113 106 102 99 94 89 86 77 71
229 228 237 251 252 342 338 349 195 174 174 204 199 152 98 56 110 134 146 157 153 150 154 144 157 153 152 149 147 144 142 141 139 137 135 134 133 131 128 128 123 118 113 108 102 98 92 83 71
242 255 239 233 250 40 324 334 237 220 186 187 212 152 98 71 112 136 150 156 153 156 155 146 156 153 151 150 148 145 144 141 138 137 137 137 136 135 133 131 132 128 127 126 121 117 106 93 77
239 248 251 236 121 56 314 302 234 234 211 178 208 165 90 104 132 142 150 156 157 157 154 142 149 151 151 149 148 146 143 140 139 140 142 144 144 142 142 151 156 153 149 149 149 147 140 125 100
276 271 300 342 59 147 47 352 250 241 216 184 194 160 114 122 132 142 147 154 157 158 154 149 158 156 152 147 147 144 141 139 138 139 140 144 149 157 168 192 206 205 191 182 180 178 175 166 148
291 272 205 127 319 43 64 290 339 276 222 114 211 195 138 137 140 142 147 152 155 159 156 154 164 157 162 155 144 139 136 136 134 133 135 145 174 189 194 221 208 231 227 214 205 204 199 192 185
267 257 37 29 342 4 36 269 125 262 201 171 147 40 118 139 147 149 151 153 154 158 160 165 156 156 164 158 144 148 142 137 154 152 143 205 219 202 196 190 165 236 234 228 221 216 216 206 195
255 288 30 0 328 322 310 282 268 226 216 191 150 121 133 150 159 161 162 163 162 162 163 159 154 159 166 149 143 155 157 147 168 122 153 211 317 290 282 122 228 248 235 224 221 221 223 228 205
255 299 339 320 313 301 285 255 245 257 248 226 175 150 152 159 165 169 169 169 163 161 159 161 158 164 158 145 150 145 134 134 139 107 84 18 284 257 257 238 199 216 219 222 197 213 227 228 230
258 277 286 296 307 282 276 260 242 253 330 42 169 158 164 170 172 175 173 169 158 159 163 162 155 155 153 146 138 145 142 142 119 107 30 39 350 319 332 292 296 257 234 230 235 226 223 237 232
247 277 288 284 282 283 257 245 261 257 248 181 166 169 174 175 176 176 170 162 158 161 162 158 154 148 144 139 147 136 130 125 109 94 71 18 16 9 353 346 328 294 288 222 224 232 216 223 222
294 285 276 271 267 236 246 226 227 172 154 178 170 173 176 173 175 170 168 166 169 167 162 156 157 153 150 147 137 132 128 119 109 95 75 39 42 35 354 354 336 324 315 336 287 246 221 226 224
271 267 242 203 222 209 247 224 209 135 163 168 162 168 167 170 174 175 172 171 170 165 162 158 158 156 156 148 145 140 135 126 109 96 88 64 55 45 357 28 324 6 351 296 255 238 229 220 211
239 250 272 130 213 187 252 286 110 154 174 171 166 163 158 164 180 175 171 164 162 163 161 162 163 158 154 145 147 139 134 124 115 109 99 74 58 37 352 23 41 359 312 290 215 267 244 233 246
228 320 347 78 196 224 251 303 113 164 186 176 172 171 164 166 173 167 168 159 159 163 162 164 161 159 154 149 147 136 134 129 127 120 101 91 73 47 21 39 38 312 348 338 319 31 305 271 285
341 331 332 343 136 249 261 292 132 175 198 185 175 174 172 173 174 171 166 158 154 159 163 163 162 161 158 153 149 146 146 151 147 131 109 115 98 61 17 85 43 353 40 31 29 14 348 307 292
310 310 317 352 6 271 278 291 200 176 193 188 184 183 179 175 168 168 168 161 154 159 166 169 169 164 165 161 165 163 163 166 162 154 139 145 111 98 11 53 76 360 49 15 2 328 174 285 316
290 298 319 17 124 280 293 279 163 182 195 196 192 189 182 172 171 174 175 172 169 169 169 173 174 171 175 165 165 166 160 176 166 163 156 172 156 156 136 43 65 60 77 61 29 354 327 31 336
301 311 331 331 281 221 278 202 167 169 184 191 193 189 183 177 178 179 181 181 179 176 176 177 176 174 178 167 168 160 166 186 175 185 182 186 185 179 126 127 39 47 349 77 30 355 346 355 70
314 0 310 295 285 346 317 324 130 170 184 188 187 185 184 180 179 182 188 188 184 180 177 176 178 179 178 179 187 187 194 193 186 196 178 181 195 196 183 178 157 254 49 91 183 56 347 309 325
339 333 282 280 283 283 294 309 92 164 191 185 184 185 183 182 183 186 192 190 185 179 177 180 182 183 184 193 194 202 209 205 188 191 175 201 192 202 199 193 187 194 195 83 36 64 341 331 335
186 232 231 238 253 298 21 311 49 90 174 171 175 179 180 179 182 186 190 187 185 181 183 183 182 187 188 195 201 210 215 216 208 206 195 206 195 199 197 200 200 208 198 167 183 186 170 358 2
226 267 274 268 264 20 61 296 40 72 123 169 170 173 177 179 181 184 186 186 185 186 188 186 186 191 192 198 204 209 215 214 215 221 211 223 213 200 189 201 201 208 200 201 202 211 249 209 229
247 283 298 314 326 338 152 338 72 107 130 158 166 168 175 180 183 184 185 185 187 189 191 191 191 194 197 202 207 210 212 218 221 216 231 216 228 218 183 197 203 207 205 208 205 226 211 217 237
249 258 307 287 283 289 0 96 125 144 161 165 167 172 179 183 183 184 184 188 190 192 194 195 194 198 202 205 206 211 213 223 228 214 218 222 215 210 195 203 206 207 207 213 212 233 228 222 236
286 279 250 276 304 303 300 262 88 152 171 174 177 180 182 183 186 186 186 190 192 194 196 199 199 203 207 208 210 211 213 215 219 221 219 220 212 209 204 208 210 210 208 210 219 227 219 230 235
192 213 249 271 299 300 306 52 67 82 190 193 187 186 185 187 188 188 191 192 194 195 195 199 202 206 210 214 214 220 217 215 214 216 215 212 213 204 208 211 212 213 212 211 215 234 226 229 236
240 237 230 266 273 268 290 60 92 62 89 204 196 185 189 192 192 192 192 194 196 199 201 203 207 210 213 214 214 217 220 218 217 216 214 211 211 210 210 212 214 217 217 215 217 226 229 230 235